RH
55 53 50 51 57 59 53 48 47 47 46 44 46 46 45 47 49 51 57 60 61 60 59 60 61 63 65 66 67 69 70 70 69 68 66 64 62 61 60 59 56 55 56 58 67 83 95 100 100 100 99 99 97 96 98 99 100 100 100 101 100 99 99 97 95 89 82 77 72 68 65 57 49 42 36 32 28 27 30 32 30 30 32 38 46
54 51 49 50 56 60 57 54 53 53 50 47 47 47 45 48 50 51 54 57 61 62 62 61 62 64 66 67 68 69 71 71 70 71 70 68 66 63 61 61 58 57 58 58 62 73 84 90 93 96 100 101 100 99 98 98 99 100 100 101 100 100 100 99 96 92 87 83 78 75 71 64 60 58 55 50 44 37 34 35 37 38 34 33 34
52 50 48 48 54 60 61 61 60 60 56 50 49 49 47 49 52 52 52 52 56 62 64 63 63 65 67 68 69 70 71 70 69 70 70 69 69 67 64 62 60 60 61 60 62 70 81 87 92 98 100 100 100 100 100 99 97 98 99 100 100 100 100 100 99 95 90 87 84 82 78 70 64 64 66 68 65 55 45 39 38 41 41 39 36
52 51 50 50 56 63 65 66 65 65 63 56 52 50 49 51 54 55 52 49 51 59 65 65 63 65 67 68 69 69 69 69 67 68 69 69 69 69 67 65 62 61 63 67 73 80 89 95 98 100 100 100 101 100 100 100 99 98 99 100 100 100 100 100 100 98 94 91 87 85 83 78 70 65 63 66 70 69 62 52 46 45 45 44 42
55 54 55 58 65 70 73 73 71 70 68 64 58 55 55 58 58 55 52 49 51 60 67 66 64 66 68 67 67 66 66 66 66 67 68 69 70 69 68 66 63 63 68 77 87 93 97 99 100 100 100 100 100 100 100 100 100 100 99 98 98 100 100 100 100 100 99 96 91 87 86 85 81 74 66 62 64 69 71 68 61 54 50 47 45
60 61 65 70 75 79 80 79 77 74 73 70 68 66 65 63 59 56 57 59 62 68 70 68 68 69 69 67 66 65 65 66 67 69 70 70 70 68 66 65 65 71 80 86 92 96 99 100 99 98 100 100 99 99 100 100 100 100 100 98 98 98 99 100 100 100 100 99 96 91 90 90 86 78 72 68 66 70 75 77 76 68 59 54 50
65 69 73 79 84 84 84 84 81 78 75 73 72 71 67 63 62 63 68 72 73 72 71 72 73 73 71 70 68 67 67 68 69 70 72 73 73 70 66 64 67 79 90 93 91 90 94 99 100 99 100 101 100 99 100 100 100 100 100 100 100 98 98 99 99 100 100 99 98 95 93 93 90 84 76 69 68 74 79 82 83 80 72 64 57
72 76 78 84 89 89 89 88 83 78 75 72 70 70 70 71 72 75 77 80 81 81 81 81 82 81 78 76 75 74 74 74 74 75 76 77 77 73 68 69 77 87 94 94 89 86 88 91 95 99 99 99 100 100 100 100 100 100 100 99 100 100 99 99 98 99 100 100 97 95 94 93 94 93 83 72 70 75 79 82 84 84 82 75 66
78 81 82 87 90 91 92 88 83 79 76 76 78 82 84 84 83 82 81 81 82 82 80 78 81 85 86 85 84 83 82 82 81 79 79 79 78 79 81 84 90 93 92 89 88 88 89 88 91 98 101 100 100 100 100 100 100 100 100 99 100 100 100 99 99 97 98 99 96 94 94 94 95 96 89 79 76 76 78 82 85 85 85 84 79
83 88 89 91 90 92 91 85 83 84 86 89 91 90 87 83 79 75 72 70 68 66 65 67 73 82 87 87 85 82 80 79 76 77 81 84 86 90 93 93 93 92 89 88 89 90 91 89 91 96 100 100 100 100 100 100 100 100 100 100 100 100 100 100 100 97 95 95 95 92 93 93 92 93 91 84 79 77 78 83 86 86 89 90 87
90 92 91 92 91 89 86 85 90 94 94 91 86 80 77 74 73 72 71 70 69 67 69 72 77 82 86 85 83 81 79 77 77 84 91 92 93 95 97 94 92 91 91 90 91 92 91 90 92 97 101 101 99 99 99 100 100 100 100 101 100 99 100 100 100 99 95 93 92 91 91 91 88 89 91 88 82 77 77 79 82 85 90 91 87
91 85 86 91 88 81 82 91 97 92 86 81 76 75 76 77 79 81 81 81 80 80 83 87 91 93 92 90 86 84 81 78 82 92 96 93 93 94 96 96 95 95 95 93 91 91 90 88 89 92 95 95 96 99 100 100 100 101 100 99 96 93 96 99 100 99 98 96 93 91 91 90 88 87 89 89 87 82 78 78 79 82 87 87 84
82 79 84 85 80 80 88 94 88 79 78 80 82 83 84 86 88 88 87 88 91 93 94 94 94 90 85 82 81 81 79 78 83 90 89 87 88 88 90 94 95 97 97 94 92 91 90 88 89 91 93 94 96 99 101 100 100 100 96 92 89 85 87 95 99 100 99 99 97 94 91 89 89 88 86 86 88 88 85 84 83 83 85 85 83
74 78 81 79 80 87 90 82 74 78 87 89 87 85 84 84 84 82 82 86 92 96 94 91 87 83 80 81 83 86 86 85 90 94 91 88 87 87 90 93 95 96 96 94 92 89 85 84 86 89 90 90 91 93 96 97 98 99 96 92 88 86 88 94 98 99 100 99 100 98 93 90 90 88 85 85 86 88 88 87 86 86 86 85 84
75 79 80 80 83 85 79 69 74 90 96 89 82 78 77 78 77 79 82 85 90 94 93 93 92 90 92 95 94 95 93 91 97 99 97 96 94 94 97 98 98 98 96 94 92 87 84 85 86 87 88 89 92 94 96 97 97 99 100 98 95 95 97 97 95 97 100 99 100 101 98 95 93 90 88 88 85 83 83 83 83 85 87 88 89
77 81 84 85 83 79 72 74 87 97 92 81 77 76 77 79 80 85 90 92 95 96 95 96 97 97 100 101 99 96 93 94 100 101 100 100 100 99 101 100 100 100 98 96 92 88 88 90 91 91 92 95 95 93 95 98 99 101 100 99 99 99 99 97 94 96 100 101 100 100 98 97 95 93 93 92 88 83 83 85 85 88 92 92 93
77 84 89 87 82 74 72 84 97 95 82 75 77 79 80 84 87 91 98 100 100 100 99 99 100 101 102 100 99 99 97 98 103 103 101 100 100 101 102 100 100 100 99 97 95 93 93 91 89 89 93 96 93 89 94 100 101 100 100 100 100 100 100 98 94 91 94 99 101 99 95 95 96 96 96 96 93 87 85 88 91 92 93 92 92
80 88 92 87 78 71 76 94 101 89 78 77 80 82 84 88 92 97 102 102 100 100 101 100 100 101 101 99 100 102 102 101 100 102 101 100 100 102 101 101 101 99 99 97 93 92 91 87 86 90 93 95 92 90 95 100 100 100 100 100 100 100 100 98 91 86 87 95 101 99 94 95 98 99 99 98 96 91 87 86 87 89 91 89 88
84 92 94 85 74 74 88 102 99 85 81 83 84 86 89 91 94 100 103 102 101 101 100 100 102 102 99 98 98 100 102 97 89 94 101 100 100 102 100 100 101 99 100 99 94 91 88 83 83 85 86 89 90 91 95 98 98 100 100 100 101 101 99 95 91 90 92 96 100 100 97 98 100 100 100 100 99 96 89 83 83 86 89 87 86
89 95 93 83 76 83 97 103 95 84 84 89 92 92 93 93 95 99 103 103 101 101 100 101 104 101 94 93 93 94 97 92 82 89 102 102 99 101 101 101 101 100 100 100 99 98 94 90 88 87 86 89 90 90 94 95 94 96 98 100 100 99 97 95 92 92 95 99 100 100 100 100 100 100 100 100 100 100 95 89 86 84 85 86 87
93 96 92 84 84 93 101 102 93 82 81 91 99 96 92 94 97 98 101 103 101 101 100 101 103 99 90 87 88 86 86 86 82 87 101 104 100 100 102 101 100 101 101 100 100 100 96 92 89 86 83 85 85 88 94 94 88 92 98 99 98 98 99 98 94 90 95 100 100 100 100 100 99 100 100 100 100 100 99 98 94 89 87 87 86
94 96 92 88 91 99 102 99 91 82 85 95 100 94 90 94 98 100 102 102 100 100 100 99 99 98 91 86 86 82 79 82 83 86 96 103 102 101 102 102 101 101 101 101 100 100 98 93 88 83 79 83 88 90 91 86 82 88 92 88 87 94 98 98 97 96 98 100 100 100 100 100 100 100 100 100 101 100 100 101 100 97 94 89 86
94 98 95 91 93 99 101 96 88 88 94 97 94 91 91 95 100 102 102 101 100 100 100 99 100 101 97 90 85 82 80 81 82 84 91 99 103 102 101 101 101 101 101 102 100 99 100 99 95 90 87 88 88 84 83 86 89 92 90 83 83 92 98 99 100 100 100 100 100 100 100 100 100 101 100 100 100 100 100 100 100 99 97 93 90
96 102 98 93 94 97 98 94 90 93 96 93 89 89 92 98 103 104 101 100 100 100 99 100 101 101 100 96 90 84 81 80 82 85 89 93 99 103 102 101 100 100 101 102 100 99 98 95 91 87 85 87 88 85 89 98 99 98 97 95 94 97 99 100 101 100 100 100 100 100 101 100 100 100 100 100 100 100 100 100 100 100 98 96 94
101 104 100 96 97 99 99 95 94 96 93 88 86 88 92 99 105 104 101 100 100 100 100 101 101 100 100 100 95 87 82 81 83 86 88 89 89 93 99 101 100 100 102 101 99 99 95 87 84 86 89 93 96 96 98 101 100 99 101 101 100 100 100 100 100 100 100 100 100 100 100 100 101 100 100 100 100 100 100 100 101 101 99 99 99
103 103 101 99 99 101 102 100 98 96 91 86 85 85 89 99 104 104 102 100 100 100 100 100 100 100 100 99 96 92 87 86 87 87 88 89 85 81 88 95 94 95 99 99 99 100 97 93 95 98 99 99 99 99 99 98 98 100 101 100 100 101 100 100 100 100 101 100 100 101 100 100 101 100 100 101 100 100 101 99 100 101 100 99 100
103 102 102 102 101 102 103 103 102 99 93 88 85 83 86 97 104 106 104 103 102 101 101 101 100 101 101 99 98 96 92 91 93 89 88 94 90 76 77 89 91 89 89 91 96 99 99 100 101 100 98 97 97 97 98 96 95 97 98 100 101 100 99 100 100 100 101 100 100 100 100 100 101 100 100 101 100 100 99 96 97 102 100 96 97
103 101 102 103 102 101 102 104 104 100 95 91 88 86 90 99 104 104 102 103 104 102 101 101 100 100 102 102 101 101 97 96 96 89 88 99 98 81 78 90 97 94 88 88 95 99 98 97 97 93 91 90 88 87 88 90 93 94 93 95 99 101 100 101 101 100 100 100 100 100 100 100 100 100 100 100 101 101 99 95 96 100 98 93 95
103 102 101 101 100 99 101 102 102 98 95 92 89 89 93 100 105 104 101 101 103 102 101 102 102 102 104 103 102 103 102 100 96 91 93 101 99 89 89 96 95 88 86 92 99 99 94 89 86 84 82 81 81 79 79 81 86 90 89 89 94 101 102 100 100 101 100 100 100 100 100 100 100 100 101 100 100 101 100 98 98 98 95 94 97
102 100 100 101 100 100 102 101 98 95 92 92 94 95 95 97 102 104 102 99 97 96 96 99 100 101 102 102 102 102 103 101 97 95 98 99 94 89 92 94 86 78 83 96 101 96 89 83 78 77 78 80 82 81 79 81 83 85 88 89 90 98 102 101 100 100 99 100 101 100 100 101 100 100 101 100 100 101 101 101 99 95 95 97 100
101 100 100 100 100 101 103 101 96 92 90 93 100 103 99 96 96 97 98 97 94 92 92 94 96 98 100 101 101 101 101 100 98 98 101 100 98 96 94 91 90 89 92 98 98 92 87 81 77 78 80 83 87 87 86 85 85 84 89 91 91 97 101 100 100 101 100 100 101 100 100 100 100 100 101 101 101 102 102 102 100 97 98 100 101
100 100 100 100 100 101 100 97 94 94 95 98 102 102 101 100 97 94 94 96 96 95 94 93 96 99 99 100 101 101 102 101 99 101 102 98 95 98 96 92 93 97 100 100 98 93 89 85 84 87 87 85 90 93 90 87 86 86 88 91 94 99 101 100 100 101 100 100 101 100 100 100 100 102 102 102 103 103 102 102 101 101 102 102 103
100 101 100 100 100 97 94 93 94 98 101 101 101 100 101 104 104 99 96 95 96 96 95 93 96 99 99 100 103 102 102 101 99 100 102 95 89 95 102 100 95 91 90 95 98 96 93 92 92 93 91 90 93 96 92 88 85 84 85 88 92 98 100 100 100 100 100 101 101 101 101 101 100 103 103 102 101 101 102 103 102 101 102 102 102
101 100 97 97 97 94 90 92 97 101 102 100 101 103 104 105 106 105 102 98 96 96 96 94 95 97 99 102 104 103 101 101 100 100 102 98 95 98 102 100 93 85 79 82 91 96 98 100 100 97 95 95 95 96 95 91 85 82 83 85 89 92 96 100 102 100 99 101 102 102 102 101 99 99 99 98 97 98 100 101 99 98 99 99 98
99 95 89 89 90 88 89 94 100 102 102 102 103 104 104 103 104 104 104 103 101 100 99 96 94 96 100 103 104 103 101 100 100 100 100 101 102 101 98 93 90 88 85 82 84 90 96 100 100 97 96 96 95 96 98 95 88 84 84 84 85 87 91 96 101 102 101 102 102 102 102 100 97 96 94 94 95 96 99 99 95 93 94 93 91
95 89 85 84 86 88 93 99 103 103 103 103 103 102 102 104 105 105 105 105 103 102 102 99 95 96 99 98 99 102 102 101 102 102 102 102 101 96 92 91 89 89 91 90 86 87 94 97 94 92 94 97 96 96 98 98 93 88 85 85 85 85 85 89 94 98 101 103 102 102 101 99 96 94 92 93 94 94 95 96 93 90 89 87 85
91 88 86 85 87 93 99 100 100 99 100 100 99 100 103 105 105 105 105 104 102 101 100 100 100 99 96 93 95 98 98 97 99 101 100 99 95 88 86 92 95 92 92 94 93 92 94 94 90 88 91 96 97 96 97 98 96 91 88 87 86 84 83 85 87 90 94 98 100 101 98 96 94 91 88 89 91 92 91 90 89 89 86 82 81
90 89 90 91 93 97 100 97 95 95 96 96 98 101 105 105 103 103 102 101 101 102 101 101 102 102 99 96 94 93 92 92 93 94 91 91 92 89 86 91 98 99 97 98 100 101 100 96 92 89 89 92 95 96 97 98 96 92 90 88 87 85 84 85 86 87 89 91 94 95 94 93 92 89 86 85 86 87 87 85 85 86 86 83 81
91 90 91 94 98 100 99 96 95 93 92 95 100 103 104 103 100 100 101 101 102 103 102 101 102 101 99 97 94 93 96 97 96 95 93 92 94 96 92 89 93 99 102 101 102 104 104 101 97 93 89 88 90 91 92 94 94 92 90 88 87 86 86 84 85 86 87 89 90 90 89 89 89 87 85 84 84 84 84 84 82 82 83 82 80
92 90 92 96 100 101 99 96 94 90 92 99 103 101 100 101 100 100 103 105 105 102 100 100 102 98 95 95 96 98 100 100 99 100 99 94 91 95 97 92 88 91 97 101 101 103 102 100 98 95 91 88 88 89 89 91 91 91 90 88 86 86 86 85 84 84 85 86 87 87 87 87 86 84 84 83 82 81 81 81 81 80 79 79 78
90 90 95 100 101 102 102 97 90 88 96 105 105 101 101 102 101 103 106 105 102 101 100 101 102 97 93 96 101 101 100 100 101 102 102 98 93 94 97 95 89 86 90 94 95 95 93 91 93 94 90 85 84 84 86 88 89 89 90 89 87 86 85 84 83 83 82 83 83 84 85 85 84 83 83 82 82 82 80 80 81 80 78 78 78
89 92 98 101 101 104 105 98 89 91 101 106 105 103 103 100 98 102 107 104 101 101 102 102 100 94 91 95 100 101 100 102 104 105 104 101 99 98 99 98 92 87 86 87 86 85 85 86 89 90 86 80 77 76 78 84 88 88 88 88 87 86 86 85 84 83 82 81 82 81 82 83 82 82 83 83 83 83 82 81 81 80 78 78 77
90 96 101 100 102 107 104 94 91 98 103 105 105 101 94 89 92 100 106 106 104 103 101 102 102 97 92 92 96 99 100 101 103 105 105 103 101 102 103 101 95 88 84 84 83 82 82 84 86 84 80 76 75 73 75 80 84 86 87 88 88 86 86 85 85 84 82 82 82 81 81 81 81 80 82 83 82 81 80 80 79 77 76 76 75
94 101 103 102 106 108 98 88 94 103 105 104 102 92 80 81 93 104 107 105 101 96 96 101 105 102 97 94 95 99 102 102 101 103 105 103 102 103 104 103 99 92 86 85 84 83 81 82 82 80 78 76 75 75 76 78 80 82 84 86 87 87 87 85 85 84 82 80 80 80 80 80 79 79 80 80 79 78 78 76 75 75 73 73 72
96 100 101 104 108 104 92 88 97 104 104 102 97 86 80 86 98 106 106 99 90 85 89 97 103 103 100 98 98 101 104 103 101 102 104 104 104 104 103 103 101 96 90 87 85 84 83 82 80 79 78 77 77 76 76 77 79 80 81 82 83 85 85 85 84 83 81 79 78 79 79 78 78 78 79 78 77 77 76 75 74 73 71 69 68
96 96 98 104 108 102 93 93 99 102 102 101 96 92 94 97 100 103 101 92 85 89 97 102 103 103 101 100 100 101 103 104 103 103 103 103 104 104 103 102 102 99 93 89 87 85 84 83 82 80 80 79 79 78 77 78 80 80 81 81 81 82 84 85 83 81 80 78 77 77 78 78 78 77 77 77 77 76 75 74 72 69 68 66 64
94 93 96 102 105 101 97 98 102 104 103 101 98 100 103 102 101 103 100 91 88 95 102 103 103 103 102 102 102 102 103 103 104 103 102 103 105 106 105 103 104 101 95 90 89 87 86 85 84 84 83 81 80 79 78 79 81 81 81 82 82 83 84 85 83 82 81 79 77 77 77 76 76 76 76 76 76 74 72 72 70 67 66 64 61
91 91 96 102 105 105 104 104 105 106 106 103 101 103 104 102 102 105 103 99 98 100 100 97 97 99 101 102 102 102 103 104 103 103 103 102 103 106 106 105 104 102 96 92 91 89 87 86 86 85 84 82 80 80 80 81 82 83 83 83 83 84 84 84 83 82 81 79 78 78 76 74 73 74 75 73 73 72 71 70 69 67 64 61 60
86 88 96 104 107 107 107 107 107 104 101 103 106 106 105 104 104 103 102 104 104 100 94 89 88 93 100 103 101 99 101 102 102 104 106 104 102 103 104 104 105 104 99 95 95 92 89 88 87 85 84 84 83 81 81 82 83 85 85 85 84 84 84 84 83 81 80 79 78 76 74 71 70 73 74 73 73 72 70 68 66 63 60 61 65
84 89 99 106 106 103 101 104 105 101 97 100 105 105 104 104 105 103 103 105 105 99 91 84 83 89 101 106 102 97 98 100 100 103 105 104 102 102 102 102 105 106 102 100 99 95 91 89 88 86 85 87 87 85 84 85 87 88 86 84 83 84 83 82 81 78 76 75 74 72 70 69 70 72 74 73 71 68 65 63 61 60 61 65 69
89 96 102 103 99 96 97 102 104 101 98 100 103 103 103 105 106 105 104 102 100 97 91 87 87 94 104 107 102 97 96 97 98 100 103 102 101 102 102 101 103 106 104 102 100 98 94 91 88 87 88 90 90 87 86 86 88 88 85 82 80 80 77 75 73 72 70 70 70 69 66 65 67 70 70 68 65 62 60 60 61 63 65 68 66
Wind_Speed
29 31 32 33 32 29 26 24 23 23 22 21 21 20 19 18 19 19 19 19 19 19 19 19 18 18 19 19 20 20 20 20 20 20 22 23 23 24 24 25 25 26 26 25 23 20 18 18 18 19 20 20 22 23 23 23 24 26 28 29 30 30 30 25 17 17 21 24 26 25 22 21 23 26 28 29 32 37 42 46 48 50 53 55 56
30 32 33 32 31 30 28 26 26 26 26 24 22 21 20 19 19 19 19 20 20 20 20 19 18 18 19 20 20 21 21 20 20 20 20 21 22 24 25 26 26 26 26 26 25 23 22 22 21 20 19 19 21 22 23 24 24 25 26 27 28 30 30 28 23 18 18 22 26 26 25 25 27 28 29 29 30 32 36 41 44 46 49 51 53
29 31 32 32 30 28 28 27 28 29 29 27 25 23 21 20 19 19 20 21 21 21 20 19 18 18 19 20 21 21 22 21 21 21 21 21 21 22 24 25 26 26 26 26 26 25 24 24 23 20 19 20 22 22 24 25 25 25 26 26 28 29 31 31 28 23 20 22 25 26 26 28 31 32 32 32 30 29 32 36 39 42 45 47 49
28 30 32 32 30 28 27 27 28 29 29 29 28 24 21 20 20 21 22 23 22 22 21 19 18 18 20 21 22 22 23 23 22 22 22 22 22 22 23 24 24 25 26 26 25 24 24 24 23 21 21 22 23 23 23 24 24 25 27 27 27 29 30 31 31 30 26 22 23 27 28 28 30 32 32 32 31 30 31 32 34 38 42 44 46
27 29 31 31 29 27 26 27 27 28 28 29 28 24 19 19 21 23 24 24 24 23 21 19 18 19 20 22 23 23 23 23 24 24 24 23 23 24 25 25 25 25 25 24 23 22 20 20 21 22 22 23 24 24 24 24 25 26 28 30 29 28 30 30 31 33 30 25 24 26 26 26 29 30 31 32 31 29 30 30 32 34 36 39 43
26 28 29 29 27 26 26 27 27 26 24 24 22 20 18 20 21 23 24 24 24 23 21 20 20 21 22 23 23 23 23 24 24 25 25 25 26 27 28 28 27 26 24 22 21 20 19 21 23 24 24 25 26 27 26 26 27 28 29 31 31 30 30 29 30 31 31 30 27 26 25 25 26 27 30 32 31 30 29 28 30 32 33 36 39
25 26 27 27 25 26 26 25 23 21 19 18 18 19 19 20 20 21 21 22 22 22 21 21 22 23 24 24 24 24 24 24 25 26 26 26 27 29 30 30 29 26 23 21 21 22 22 23 25 25 26 28 29 29 27 27 28 28 28 29 30 32 32 30 29 29 29 28 27 25 25 26 27 26 28 30 31 31 31 28 28 32 34 34 34
25 25 26 26 25 25 24 22 21 20 19 18 18 19 19 19 19 19 19 20 21 21 22 23 25 26 26 26 25 25 25 25 26 26 27 27 28 29 30 30 28 26 24 23 24 24 25 26 28 29 29 29 29 28 27 27 27 28 29 29 30 31 32 31 29 28 27 26 25 25 24 25 26 25 24 24 25 28 33 32 29 31 33 33 33
24 25 25 25 24 22 21 20 20 20 20 20 19 18 18 18 19 20 20 20 21 23 24 25 27 27 26 26 25 24 25 26 26 27 28 29 30 30 29 27 26 26 27 28 28 27 27 28 29 29 28 27 28 28 28 28 28 29 30 30 30 31 32 32 30 28 26 23 23 23 22 21 24 24 22 24 28 30 32 30 27 28 31 31 31
23 23 23 21 20 20 20 21 21 20 19 18 17 17 18 20 22 23 24 25 25 26 27 27 27 27 27 27 27 27 27 27 28 28 27 28 28 28 28 27 27 27 29 30 30 30 29 29 29 29 28 27 28 29 30 30 29 30 31 30 30 31 31 30 29 28 26 23 22 21 19 19 23 26 25 29 33 31 27 27 28 27 24 21 23
21 20 20 20 19 20 23 23 20 17 16 17 19 21 23 24 26 26 26 27 27 28 28 28 28 28 28 29 29 30 29 28 27 26 26 26 27 28 28 28 29 28 29 29 30 31 31 31 30 29 29 29 30 31 30 31 30 30 31 31 30 31 31 31 29 29 28 25 24 23 20 19 25 29 28 30 31 29 28 30 30 25 20 16 14
19 21 21 20 21 24 24 19 15 15 18 21 23 25 26 26 26 26 26 26 27 27 27 27 27 27 27 28 29 29 28 28 26 25 25 26 27 28 28 28 28 28 28 29 30 31 32 33 33 32 32 32 31 31 30 30 31 31 32 33 32 33 33 34 34 33 32 28 25 25 23 23 26 28 29 30 29 29 30 30 28 26 25 22 19
21 22 21 21 24 24 19 15 17 20 22 22 23 23 24 25 25 25 25 25 25 24 25 25 26 26 27 28 29 29 28 28 26 25 27 28 28 28 29 29 29 29 29 30 31 32 33 34 35 35 34 31 29 29 30 31 32 33 34 35 35 35 34 35 36 38 39 36 31 28 27 27 26 28 31 33 31 29 28 27 28 29 28 28 29
22 22 21 22 23 20 18 21 24 24 21 20 21 22 23 24 25 25 26 25 24 24 24 25 27 28 28 29 29 29 28 28 27 27 28 29 30 30 30 31 31 31 32 33 34 35 35 35 35 35 35 33 32 31 31 32 33 35 35 35 35 35 34 34 36 38 41 42 39 36 34 32 30 29 32 34 34 33 31 31 32 32 31 30 31
23 23 22 20 19 19 23 27 26 21 18 19 21 23 24 25 26 26 26 25 25 26 26 27 28 28 28 27 27 28 29 28 27 28 29 30 30 31 31 31 32 33 35 35 36 37 36 35 34 35 35 33 31 30 30 32 34 34 34 35 35 35 35 35 35 36 39 41 42 42 41 38 36 34 32 33 36 38 38 39 38 36 33 28 24
23 23 21 18 19 22 25 26 22 18 18 20 22 23 23 25 25 26 26 26 26 26 26 26 26 26 26 26 27 30 30 28 27 27 28 28 29 30 31 31 33 34 35 35 35 35 34 33 32 32 31 31 31 31 31 32 33 32 32 33 34 35 35 35 34 34 37 40 41 42 42 42 41 38 34 33 35 39 38 35 33 31 28 22 19
24 22 20 19 20 23 24 22 19 18 19 21 22 22 23 24 25 25 25 25 24 23 23 23 24 25 26 27 28 30 30 28 26 26 27 28 29 30 30 31 32 32 32 32 32 32 31 31 32 32 33 34 34 33 31 31 31 32 32 33 34 34 34 34 33 34 36 39 41 42 42 43 43 41 38 34 34 37 35 28 27 29 25 16 12
24 22 20 20 23 24 22 19 17 19 22 23 22 23 25 25 25 24 22 22 22 22 23 24 25 25 26 27 27 28 29 28 27 27 28 29 29 29 30 30 31 31 30 30 30 30 30 31 31 32 33 34 34 32 31 30 31 32 32 32 33 33 32 32 32 32 34 36 39 41 41 42 42 40 38 36 35 37 37 32 31 31 25 17 13
24 21 20 22 25 24 20 18 18 20 22 22 23 25 26 25 25 24 22 22 22 23 23 24 25 25 26 27 27 27 28 29 29 29 29 28 27 28 28 28 28 29 28 29 30 30 31 31 31 32 33 34 33 32 31 30 31 32 31 30 28 30 32 33 30 29 31 33 34 36 37 37 37 36 36 36 35 36 39 38 35 32 27 21 19
23 21 22 25 25 22 19 18 20 22 23 23 24 26 26 26 26 25 24 23 23 23 24 25 26 27 26 27 28 28 28 30 30 29 27 27 26 27 27 26 25 26 27 27 26 26 27 29 29 29 30 30 31 31 31 31 31 31 30 28 26 28 32 32 29 28 30 32 31 31 31 31 32 32 32 32 33 34 37 37 36 35 31 25 24
22 22 23 25 23 21 20 20 22 24 24 24 25 26 27 27 26 26 25 24 23 24 25 26 26 27 27 27 28 29 29 30 30 28 26 25 25 25 26 26 25 26 27 27 26 26 27 29 29 29 29 30 31 31 31 31 30 29 29 29 29 30 31 30 29 28 30 31 29 28 28 27 27 28 28 29 30 31 33 32 32 34 32 28 28
22 22 23 24 22 22 22 23 25 25 23 22 24 27 27 26 26 26 24 23 23 24 25 25 25 27 28 28 28 29 29 29 29 28 26 25 24 24 25 25 25 26 27 26 26 27 28 30 32 31 32 31 30 30 31 30 28 27 29 31 32 31 30 29 29 28 29 29 27 25 25 24 24 23 24 25 26 27 27 26 27 28 28 29 31
22 22 22 23 22 23 24 26 26 23 21 20 22 25 26 26 25 25 24 23 23 23 23 23 24 25 27 28 28 29 29 28 28 28 27 25 24 24 25 25 26 26 25 22 22 23 24 27 29 30 30 29 29 29 29 26 22 22 25 28 29 28 27 27 27 27 27 26 24 22 22 23 22 22 23 24 24 24 24 23 24 25 24 24 25
21 21 21 22 23 23 24 25 24 21 19 19 22 24 25 25 24 23 23 22 22 22 22 22 22 22 24 26 28 29 29 29 29 29 28 26 24 23 24 24 24 23 21 20 23 25 26 26 27 28 28 27 25 24 21 19 19 19 20 21 20 20 21 22 23 23 22 21 21 20 19 21 23 24 25 26 25 24 24 23 22 23 23 22 21
21 21 21 22 22 23 24 24 22 18 17 19 22 24 24 24 23 23 22 21 21 21 21 21 21 21 22 24 26 29 30 30 31 30 29 27 24 22 21 20 20 19 18 19 23 25 25 26 25 23 20 18 16 15 13 13 14 15 16 15 13 12 13 14 15 17 17 16 17 19 20 21 26 28 28 28 27 26 26 26 25 24 24 24 24
21 21 21 22 22 22 23 22 19 17 17 19 21 23 24 23 23 23 22 21 21 21 21 20 20 20 21 22 25 27 29 30 31 30 29 27 24 21 18 16 16 16 16 17 19 17 13 11 11 10 7 6 6 5 4 4 6 8 9 10 8 7 7 8 9 11 13 14 17 21 24 26 29 31 29 29 29 28 29 30 29 28 28 29 29
22 22 22 22 22 22 22 19 17 16 18 20 21 23 23 22 22 22 22 22 21 21 20 20 20 19 20 22 24 25 27 29 28 28 28 28 26 22 18 17 17 16 15 16 15 12 9 5 2 0 1 2 3 3 3 3 5 6 5 2 2 2 3 5 7 10 13 16 20 24 26 29 30 30 30 30 29 28 30 32 32 30 31 33 32
22 23 22 22 22 21 19 17 16 18 19 21 22 23 23 21 21 21 22 22 22 22 22 21 20 19 19 21 22 23 24 24 25 25 27 29 28 24 21 22 22 18 15 13 12 11 9 8 7 6 6 6 6 6 6 6 6 8 10 8 4 5 6 6 9 13 16 18 21 23 24 27 28 28 29 30 29 27 29 33 33 31 32 33 30
21 22 21 21 21 19 16 16 17 19 21 22 23 23 22 20 19 21 22 21 21 22 23 22 21 20 20 20 20 20 20 20 22 24 26 27 26 23 22 23 20 16 13 11 10 9 9 8 8 8 8 8 8 8 7 7 7 7 8 10 8 5 8 9 11 13 13 15 19 21 23 25 26 26 29 29 27 26 28 33 33 30 30 32 27
21 20 19 19 18 17 16 17 18 20 21 23 24 24 21 18 17 19 21 21 20 21 22 23 23 23 22 21 20 19 19 20 22 23 25 26 24 19 16 14 12 11 10 8 8 8 6 6 7 8 9 8 7 7 6 5 6 6 6 7 7 5 7 11 11 11 12 14 18 20 22 24 25 26 28 28 26 25 26 29 31 30 31 33 29
19 19 18 17 16 15 15 17 19 20 22 23 23 23 22 21 20 20 19 20 21 22 22 23 23 23 22 22 21 20 20 21 22 22 23 23 21 17 14 11 9 9 10 8 7 6 4 3 5 7 7 7 6 5 4 2 2 2 3 4 4 4 6 9 11 11 13 15 17 18 21 24 24 25 27 28 27 25 25 27 29 29 31 32 30
18 17 16 15 14 14 15 17 19 21 22 22 21 20 20 22 24 23 20 18 19 21 23 23 22 21 20 19 19 20 20 20 20 20 21 20 19 18 16 12 9 5 4 8 6 5 3 3 5 6 6 7 5 4 2 0 2 2 3 5 6 5 6 7 9 11 13 15 17 18 20 23 24 25 27 28 28 27 26 27 29 29 30 30 29
15 14 13 12 13 14 17 18 19 20 20 20 20 19 18 19 21 24 25 23 20 20 20 20 19 18 18 18 18 20 19 18 18 18 18 19 19 17 13 9 7 7 2 2 3 5 6 6 7 6 6 6 5 4 3 2 4 4 5 6 8 8 7 7 8 11 13 15 18 19 20 23 25 26 26 26 27 27 27 28 29 30 30 30 28
11 10 10 11 13 15 17 19 19 19 18 18 18 19 20 20 20 21 24 25 23 21 18 17 17 17 17 18 19 19 18 17 17 17 17 17 17 14 10 7 6 5 4 3 4 6 8 9 9 8 6 5 4 4 4 5 5 6 6 8 9 9 8 8 9 11 13 15 17 19 21 22 24 25 25 25 26 27 27 27 28 29 28 28 27
8 9 10 12 14 16 17 18 18 18 18 19 20 20 21 21 20 20 20 21 22 22 20 19 18 17 17 18 18 18 17 16 16 15 15 14 12 11 11 10 9 8 7 7 6 6 7 8 8 7 5 5 4 3 5 7 7 7 8 9 9 9 9 9 10 12 13 15 17 19 21 21 22 24 24 25 25 26 25 25 27 28 29 29 28
8 11 13 14 15 17 17 17 17 18 19 20 20 21 21 20 21 21 20 20 20 20 21 21 21 19 17 16 16 17 16 16 15 15 13 12 11 12 13 11 10 10 9 8 7 7 6 6 5 4 3 4 4 4 5 8 8 8 9 9 9 10 10 9 10 11 13 15 17 18 19 21 21 23 24 24 25 25 25 25 26 28 29 29 28
10 12 14 16 17 17 17 17 17 18 19 19 20 21 21 21 20 20 19 19 19 18 19 20 19 18 17 17 17 17 17 16 14 13 11 10 11 11 10 9 10 11 10 9 8 7 7 7 5 2 2 2 3 4 5 7 8 8 8 9 9 9 10 10 10 10 12 14 15 15 17 18 19 21 22 23 24 24 25 26 27 27 27 28 27
12 13 15 16 17 17 18 18 19 19 19 20 21 20 20 19 19 18 18 17 17 16 17 18 18 18 18 19 19 19 18 17 15 13 11 10 9 8 8 7 7 8 8 9 9 8 7 6 5 4 3 3 3 4 5 7 8 8 8 8 8 9 10 11 11 11 12 13 14 14 15 16 17 17 20 22 24 24 24 26 27 26 25 25 25
13 15 16 16 17 17 17 18 19 20 21 20 20 19 18 17 17 16 16 16 16 17 18 18 18 18 19 20 20 19 19 17 16 15 13 11 9 8 8 7 6 6 5 6 8 8 7 6 5 5 4 5 5 5 5 7 8 8 8 9 9 9 10 11 11 12 13 14 14 14 15 15 15 16 18 21 23 24 24 25 26 26 25 23 23
14 16 17 17 17 17 17 17 19 20 20 20 19 18 17 16 15 15 15 16 17 17 17 17 18 18 19 19 19 19 18 16 15 14 13 13 12 9 7 7 7 6 6 6 6 7 7 6 6 7 7 7 7 7 7 7 8 8 9 9 9 10 10 11 11 12 13 14 14 14 15 15 15 16 18 20 22 23 24 24 24 25 25 24 24
16 17 18 17 17 17 17 18 20 20 19 19 17 16 15 14 14 15 16 16 17 17 16 17 18 18 19 18 17 17 17 16 15 14 13 13 12 10 7 7 7 7 7 7 7 7 7 8 8 8 8 7 7 7 7 7 8 9 10 10 10 11 11 11 11 12 13 13 14 14 14 14 15 16 18 21 21 22 23 24 24 24 25 25 25
17 17 17 17 17 17 17 18 19 20 19 17 15 13 13 14 15 16 16 16 16 16 16 17 17 18 18 17 16 16 15 14 14 14 12 11 11 9 7 6 6 5 5 6 6 7 7 7 8 9 8 7 7 7 7 8 8 9 10 11 11 12 13 13 13 13 13 13 13 13 14 14 15 16 19 21 22 22 23 24 25 25 25 24 24
17 17 17 17 17 17 18 19 19 19 18 15 13 12 13 15 16 16 16 15 15 16 16 16 17 18 18 17 16 15 14 14 13 13 11 11 10 9 7 5 5 5 4 4 4 5 6 7 8 8 7 6 5 5 6 7 8 9 10 11 12 12 13 14 14 14 14 14 14 14 14 14 15 17 19 21 21 22 23 23 24 24 23 23 23
17 16 16 17 18 18 18 19 18 17 15 12 12 13 15 16 16 16 15 14 14 15 15 16 17 18 18 17 16 15 14 14 14 13 11 10 10 8 7 5 4 5 5 4 4 5 6 7 8 8 8 7 7 6 6 7 7 8 9 10 11 12 13 14 14 14 14 14 15 15 15 15 16 17 19 20 20 21 23 23 23 23 23 22 22
16 16 17 19 19 18 18 18 17 15 13 11 13 15 16 16 16 15 14 13 14 15 15 15 16 16 17 17 17 16 15 14 14 13 11 10 9 8 7 5 4 5 5 4 3 5 7 7 8 9 9 8 8 8 8 8 8 7 7 8 9 11 12 12 13 13 13 13 14 15 15 15 16 17 18 19 19 20 21 21 21 22 22 21 21
16 16 18 19 19 18 18 18 16 13 12 12 15 16 16 15 14 13 12 13 14 15 15 14 14 15 15 16 16 15 14 14 13 13 11 10 9 8 6 5 5 5 6 5 4 4 6 7 8 8 8 8 8 8 9 9 9 9 8 8 8 9 10 11 12 13 12 12 12 14 14 15 15 16 17 18 18 18 20 20 20 20 21 20 20
15 16 17 19 18 18 17 16 14 12 12 14 15 16 15 14 12 11 11 13 14 13 13 13 13 13 14 15 15 15 14 13 13 13 12 10 9 8 6 6 5 6 7 7 6 5 6 7 8 8 8 8 8 9 10 10 10 10 10 10 9 9 11 12 12 12 11 10 11 12 13 15 16 17 17 18 18 19 20 20 20 19 20 20 20
15 16 17 18 17 16 16 15 13 14 15 15 15 14 13 12 11 11 12 13 13 11 11 12 12 13 13 14 14 14 14 13 12 12 11 10 9 7 5 5 6 6 7 8 7 6 6 7 8 8 8 8 9 9 10 11 11 11 11 11 11 11 12 12 12 12 12 11 10 11 13 15 17 18 19 19 20 20 21 21 20 20 20 20 20
15 16 17 17 15 14 14 14 14 16 16 15 14 13 12 12 12 12 12 12 11 10 10 11 12 13 13 13 13 14 14 13 12 12 12 11 9 6 4 4 5 7 8 9 8 7 7 8 9 9 9 9 9 9 10 11 12 12 12 12 13 13 13 13 13 13 12 12 12 12 14 16 18 20 20 20 21 21 21 21 21 21 21 21 21
16 17 16 15 15 14 15 15 15 16 16 15 14 13 13 12 12 12 12 11 10 10 10 12 12 13 12 12 12 12 13 13 13 12 11 11 10 7 3 2 4 6 8 9 8 7 8 9 10 10 11 10 10 11 12 12 13 13 13 13 14 14 14 14 14 14 14 14 14 14 16 18 20 21 21 21 21 21 21 21 21 21 21 21 20
16 15 15 14 15 16 16 16 15 15 14 14 13 13 13 13 12 12 11 10 10 11 12 12 12 12 11 10 10 11 12 12 12 12 11 10 9 7 4 1 2 5 7 9 8 8 9 10 11 11 12 12 12 12 12 13 13 13 13 14 15 16 16 16 16 15 15 14 14 15 17 19 21 22 21 21 21 21 21 21 21 21 21 20 18
Wind_Direction
333 332 330 328 325 319 302 292 299 301 296 295 297 300 304 307 311 312 309 307 310 311 309 310 314 316 319 321 324 326 328 331 335 336 338 340 341 342 342 341 339 336 334 331 329 326 319 315 312 311 316 317 314 313 310 300 283 265 252 246 240 235 233 231 237 256 254 246 248 249 249 252 252 252 252 250 247 243 239 237 236 234 232 232 231
329 328 327 325 322 319 309 299 302 302 295 290 291 295 298 303 308 309 306 304 305 305 303 305 307 309 312 314 317 320 320 323 327 329 331 334 335 336 337 337 335 332 331 328 325 321 316 311 310 310 312 311 309 310 311 309 301 283 264 251 245 240 235 232 235 250 254 247 247 248 246 246 247 248 250 251 249 245 241 238 236 235 234 232 232
324 324 324 321 318 315 310 305 304 303 296 288 287 291 293 298 305 306 305 304 302 300 298 298 301 304 307 309 311 314 315 317 319 321 324 327 329 331 332 332 330 328 325 322 320 317 313 309 307 308 310 307 306 307 307 307 306 299 284 264 250 246 242 235 234 243 252 249 246 245 243 242 245 246 247 250 252 248 244 241 237 235 235 233 232
321 321 321 318 315 312 309 307 305 303 299 291 286 287 290 296 302 305 306 305 300 297 294 291 295 300 303 306 308 309 309 311 313 314 316 320 322 324 325 324 323 321 318 316 317 314 310 305 302 304 307 305 303 303 304 305 303 302 297 283 264 252 247 241 236 239 248 251 245 243 242 241 243 245 244 245 247 246 246 245 240 237 236 234 233
318 318 317 314 312 310 309 310 307 304 303 296 289 288 295 302 305 307 307 305 301 298 293 287 290 296 299 302 304 303 304 306 307 308 310 314 317 318 319 318 316 316 314 312 313 311 306 299 296 300 303 301 300 300 300 301 300 299 298 295 284 266 253 245 240 240 243 248 247 245 243 241 241 242 240 238 237 238 240 241 240 238 237 236 235
316 316 315 311 309 309 311 313 310 306 305 301 296 300 306 308 307 308 308 306 303 299 292 286 290 296 298 300 299 298 300 301 301 302 304 307 311 313 314 314 312 311 308 307 307 304 297 294 294 295 294 292 293 295 295 295 297 297 295 294 292 283 267 251 242 241 242 244 247 246 243 239 237 235 236 234 230 228 229 233 236 236 235 235 235
314 314 313 310 307 308 311 314 313 311 309 306 305 307 309 308 309 310 310 310 308 302 294 291 296 300 299 299 297 295 296 297 297 297 299 302 305 308 309 310 309 306 301 299 300 298 294 292 291 289 287 287 288 288 289 291 293 293 292 291 291 290 282 267 250 242 242 244 244 243 241 240 235 232 233 231 227 227 225 223 227 231 230 230 231
312 312 312 311 310 310 312 315 318 320 318 316 314 313 313 313 313 312 313 312 311 307 301 299 301 302 300 298 296 294 294 294 294 295 296 298 301 303 304 305 303 300 295 293 294 294 292 289 287 286 284 285 284 281 281 284 287 289 290 290 289 288 286 279 264 248 242 243 243 240 239 237 233 231 228 218 213 221 222 218 222 226 225 226 228
310 311 312 311 312 313 314 317 319 321 321 321 322 321 320 319 316 314 312 310 309 307 304 303 303 302 300 297 295 295 294 293 294 295 295 297 299 299 300 298 295 293 292 293 293 291 290 289 287 285 283 281 280 277 276 276 279 282 283 285 286 285 284 282 275 260 246 241 241 239 235 233 229 223 215 207 208 219 220 215 222 228 223 222 224
305 308 310 310 312 313 314 315 315 316 319 322 323 322 321 319 316 314 312 309 307 306 304 303 303 300 298 297 296 296 296 295 295 295 293 292 293 293 292 290 288 287 288 290 291 290 290 289 286 282 279 279 277 275 274 274 275 275 276 277 280 281 280 278 276 269 256 245 240 238 232 231 229 221 217 217 218 220 215 208 217 223 214 213 222
301 305 308 307 311 314 314 312 310 314 319 319 319 319 318 317 315 313 311 309 307 306 304 301 299 296 295 296 297 297 296 296 297 293 288 286 286 285 285 285 285 284 284 284 285 287 289 289 287 283 279 279 279 276 274 275 275 274 273 274 274 275 275 273 272 271 265 255 245 240 234 231 230 226 222 223 221 217 213 210 212 209 196 198 216
300 303 303 303 308 311 310 309 312 318 319 318 317 317 316 316 315 313 312 310 307 305 301 297 295 294 295 296 297 297 297 297 296 291 288 287 285 284 283 283 282 280 279 280 281 283 286 287 285 283 280 278 277 275 274 275 276 275 275 276 276 274 272 270 268 266 265 262 254 245 239 235 234 229 223 222 220 216 215 212 209 203 198 203 210
301 300 299 301 305 305 305 313 320 319 317 316 317 318 317 316 315 313 312 310 306 302 299 296 294 295 297 297 296 295 296 296 295 290 289 288 286 285 284 282 281 279 278 279 280 281 283 284 284 282 279 276 273 272 275 277 278 277 277 279 279 277 274 270 268 264 261 261 260 254 246 239 237 232 227 223 219 214 213 212 210 207 205 208 213
301 296 296 300 302 301 307 315 317 314 314 316 317 318 316 313 311 310 308 305 301 298 296 295 294 294 295 294 293 294 294 295 293 290 288 287 285 285 284 283 283 281 279 278 278 279 279 280 280 278 275 273 271 273 275 276 277 277 278 279 279 277 275 273 271 268 261 257 256 256 253 247 242 239 234 227 219 214 213 212 212 211 211 215 218
298 294 294 296 296 299 306 310 309 308 311 315 315 314 312 310 308 306 304 301 297 295 294 294 294 293 292 292 293 293 293 294 292 289 288 287 286 286 285 285 283 281 279 278 277 277 277 276 273 270 269 270 271 273 275 276 275 275 276 278 278 276 275 273 272 271 264 257 252 252 253 251 247 244 240 231 223 221 220 219 218 216 212 213 214
296 292 289 289 293 299 304 303 299 300 309 313 313 313 311 309 307 305 303 300 297 296 295 294 293 292 292 293 294 293 293 293 290 289 289 289 289 288 287 285 282 279 278 277 276 274 273 272 271 271 271 273 274 275 275 274 272 272 273 274 275 274 273 272 272 269 265 259 253 251 252 251 248 244 239 233 227 223 220 220 217 210 203 201 199
294 289 284 288 297 302 303 297 291 298 310 313 312 312 312 310 308 306 303 300 298 297 295 294 293 293 294 295 294 293 293 292 290 290 291 292 291 289 285 282 280 278 276 275 275 272 269 268 269 270 271 272 273 275 273 269 267 269 270 271 271 271 270 271 273 272 267 261 254 252 253 250 247 242 236 232 228 220 212 208 205 198 194 195 193
292 285 284 294 303 305 299 288 288 302 311 311 310 312 312 311 309 307 302 298 297 296 295 295 294 294 295 295 294 292 291 292 292 291 292 292 290 286 284 281 279 277 275 275 274 272 271 270 269 267 268 269 271 272 270 266 265 266 267 266 265 265 266 269 272 274 273 265 254 252 254 251 244 237 231 229 226 216 208 206 204 197 194 198 189
288 282 288 301 307 304 290 280 292 307 309 308 309 311 311 310 309 307 301 297 296 296 297 297 296 296 297 296 296 294 292 294 296 293 291 291 288 285 283 279 276 276 275 274 274 272 271 271 271 268 267 267 269 270 267 263 261 264 269 271 263 258 261 265 268 271 272 264 253 249 249 245 236 230 226 225 222 215 211 210 206 197 195 196 181
286 284 294 305 307 298 282 281 298 308 307 306 308 309 310 310 309 308 304 301 299 298 299 299 298 299 301 300 300 298 295 296 298 296 291 289 287 285 283 279 275 275 275 274 273 271 270 270 270 269 267 266 268 269 266 262 260 263 271 277 273 266 263 262 265 269 267 260 250 241 235 229 225 222 219 217 215 212 211 210 206 201 196 190 180
286 287 297 305 303 290 279 286 302 307 304 304 306 307 309 309 308 308 306 303 301 300 301 301 300 301 303 304 303 301 300 300 300 298 293 290 288 286 284 281 278 277 276 274 272 270 269 270 270 268 267 267 269 270 267 263 262 266 272 276 277 273 267 262 263 266 264 256 242 227 217 213 212 210 207 205 204 204 205 206 205 202 198 190 183
287 289 298 302 297 287 283 292 303 305 302 303 305 308 310 309 308 308 305 301 300 301 302 302 301 301 303 305 304 305 306 305 303 301 297 293 291 288 284 282 280 277 275 273 271 270 268 267 268 269 269 269 269 268 268 266 267 270 272 273 273 270 264 260 261 262 258 247 229 210 202 198 193 190 188 187 189 191 194 196 196 196 196 193 187
290 291 297 299 294 288 289 297 303 302 300 304 307 308 310 309 307 307 303 300 300 300 301 302 302 301 302 304 305 307 308 308 307 305 303 298 293 290 286 284 282 281 281 284 286 285 278 270 268 270 270 269 267 266 267 270 272 274 273 272 271 266 257 253 253 252 246 232 211 194 187 181 172 167 166 168 171 176 178 179 181 183 184 184 183
292 290 295 297 294 292 294 299 301 299 301 307 310 310 310 308 305 303 301 299 298 296 297 300 300 299 299 301 303 306 309 310 310 310 310 307 299 292 289 287 288 291 296 303 306 302 290 276 269 268 269 269 269 269 265 263 265 270 270 269 266 258 248 244 242 237 227 211 191 176 169 164 157 153 154 155 156 159 160 158 160 166 166 163 163
292 290 295 297 295 295 297 299 298 297 303 310 312 311 309 305 302 301 299 297 295 293 294 295 295 296 295 296 300 305 308 310 311 314 317 316 308 299 294 293 295 299 303 308 310 306 292 275 267 267 266 263 264 265 258 254 262 267 264 260 259 251 241 237 233 220 204 188 171 158 149 146 146 147 148 149 146 143 143 140 137 141 145 143 141
291 291 294 296 297 297 297 297 296 297 305 311 312 310 308 303 300 299 298 297 295 293 291 291 291 291 292 293 297 302 306 308 310 314 320 321 316 310 305 301 299 298 297 303 313 319 310 279 254 246 245 243 248 255 257 271 293 290 268 255 254 251 240 230 219 199 182 166 151 142 136 136 139 141 142 143 140 136 136 133 126 124 131 130 124
291 291 294 296 298 297 295 294 295 298 304 309 310 309 306 301 296 297 298 296 295 293 291 289 287 285 289 293 296 299 303 305 307 313 321 324 321 314 307 303 301 297 292 298 310 326 345 360 1 259 20 0 338 343 0 2 2 5 356 293 226 194 200 205 184 162 150 141 132 129 130 132 133 134 135 134 133 132 135 135 126 120 124 125 116
293 291 293 295 297 297 296 294 294 299 303 306 307 306 304 299 294 294 297 297 294 290 287 285 283 282 286 291 294 296 298 299 302 309 315 318 317 308 297 296 297 293 289 293 302 312 323 335 343 346 348 346 341 339 346 357 10 23 26 21 37 94 114 143 144 131 126 126 123 122 125 128 128 130 131 130 129 131 135 136 131 126 126 125 116
293 291 292 295 297 297 295 294 299 304 306 306 306 305 302 297 292 294 298 298 293 288 286 284 283 284 287 290 291 293 293 294 300 304 306 312 314 305 294 293 290 281 279 286 290 298 313 323 335 344 345 342 339 334 334 341 351 11 28 22 15 55 105 122 125 121 118 121 121 121 122 122 123 125 126 126 127 131 135 135 133 130 128 124 117
292 290 292 295 296 295 294 298 306 310 309 308 307 306 303 297 291 291 295 296 295 293 291 289 287 287 289 291 291 291 292 297 301 300 300 310 320 319 308 299 282 260 260 271 277 288 312 335 349 356 354 347 343 337 328 330 340 354 29 34 11 28 98 117 124 127 127 123 120 121 122 120 119 121 122 122 124 128 131 132 134 132 128 122 116
288 289 293 295 295 294 297 304 310 311 310 308 306 303 302 301 298 295 293 293 295 297 297 294 291 289 289 292 295 296 296 297 297 295 297 306 320 331 328 315 292 264 246 239 255 277 299 336 346 350 347 339 334 328 319 321 347 5 60 81 58 55 94 118 128 132 132 127 122 120 121 121 120 120 120 121 122 123 124 126 128 127 124 121 118
287 289 293 295 298 302 306 309 310 309 309 308 305 302 303 305 306 304 300 294 293 297 300 299 295 291 291 294 299 300 299 296 293 295 298 300 308 324 329 324 328 326 237 214 231 258 262 292 315 320 324 322 314 302 298 265 136 140 131 119 108 100 103 119 132 138 137 132 127 123 121 122 121 120 120 121 120 118 118 120 121 120 118 117 116
288 289 294 299 305 309 310 310 309 307 307 306 305 304 304 305 305 306 307 305 300 299 301 300 297 295 296 299 301 302 301 298 295 298 300 295 296 311 327 337 359 13 19 214 259 277 267 272 283 286 292 300 296 277 245 176 144 146 143 130 121 116 111 119 140 148 145 138 134 129 126 125 124 121 119 120 121 119 117 118 118 118 117 115 114
286 290 300 307 308 309 311 310 309 308 307 305 305 305 304 302 300 302 306 309 309 308 308 305 300 300 300 302 305 305 303 303 303 303 301 297 295 302 313 316 318 326 328 329 319 296 280 272 268 268 273 276 275 260 217 173 143 134 133 125 118 116 114 118 135 145 146 144 140 134 131 131 131 127 123 121 121 120 120 121 122 121 120 118 117
287 300 311 312 310 310 311 311 309 308 307 306 306 305 302 301 300 299 300 302 304 306 308 307 307 307 304 303 307 309 307 308 310 307 304 303 300 295 291 290 289 292 301 313 312 298 285 272 262 264 267 259 253 243 205 172 148 135 130 121 115 115 115 119 127 133 138 142 140 138 136 136 136 134 131 127 126 125 124 127 129 129 127 126 124
301 310 314 315 314 313 311 310 308 308 307 307 306 303 300 299 299 298 296 296 296 297 300 305 311 314 311 308 311 313 312 312 313 310 309 310 307 297 291 288 285 284 286 293 294 285 263 241 235 251 261 243 230 220 197 174 155 144 136 126 118 115 114 116 122 127 132 137 137 137 138 137 137 137 134 130 130 132 132 132 132 133 133 132 130
308 312 313 315 315 313 310 308 309 309 308 306 304 302 301 299 298 297 296 295 294 296 301 309 316 319 318 318 320 319 318 317 314 310 309 309 305 300 293 286 281 278 273 269 266 252 227 211 208 215 235 221 209 205 197 180 165 153 146 139 130 124 120 119 121 127 133 135 135 136 137 136 138 141 139 133 131 132 134 135 134 133 135 136 134
309 311 313 313 312 309 308 309 311 312 310 308 305 304 303 301 299 298 296 296 299 305 311 317 320 320 318 320 323 323 323 323 320 316 314 313 313 312 304 291 283 278 266 251 234 217 205 202 202 196 197 204 199 198 195 187 178 169 161 155 146 136 132 129 128 132 136 136 136 138 139 137 138 142 142 139 136 135 136 137 137 135 135 136 136
311 312 312 310 307 305 307 310 312 312 311 310 309 307 304 302 301 299 300 304 310 314 316 317 317 318 318 321 323 324 322 320 320 320 320 319 319 319 313 300 291 281 260 230 209 201 200 204 210 215 220 222 215 208 200 194 188 183 177 171 161 152 146 141 137 139 140 138 138 139 139 138 139 143 144 143 141 140 140 141 142 142 140 137 137
312 312 310 307 305 304 307 310 311 311 311 310 309 308 306 305 306 306 310 314 314 314 314 314 314 317 320 321 321 319 316 313 316 318 316 313 311 312 312 305 292 275 254 231 216 213 215 219 225 229 227 222 217 210 202 198 194 189 185 181 174 165 159 152 147 145 143 142 141 140 139 139 139 142 144 144 144 145 145 144 145 145 143 140 138
313 311 306 304 303 304 307 309 311 311 310 308 308 310 310 311 312 314 315 315 313 312 313 313 315 319 321 319 316 315 313 312 315 314 308 303 301 298 300 305 296 274 256 244 236 234 234 228 223 219 214 209 207 203 201 200 197 192 188 185 179 172 166 161 156 153 149 147 146 144 142 141 142 144 145 145 145 146 147 146 145 145 143 141 141
312 308 303 302 302 303 306 309 310 310 310 309 310 312 313 315 316 317 316 315 314 314 314 315 319 324 323 320 319 319 316 315 317 317 311 303 295 285 282 296 295 274 253 242 234 231 229 217 205 201 201 201 201 202 199 195 193 191 190 186 181 175 170 164 161 159 157 154 152 150 147 146 147 147 147 147 147 146 145 144 144 144 143 143 144
311 306 301 300 301 304 306 308 309 309 310 310 310 311 315 317 317 317 318 318 319 319 317 319 324 328 327 326 326 326 325 324 324 322 318 311 298 282 271 277 282 264 246 238 226 214 202 191 187 189 190 192 193 194 192 189 188 188 187 185 182 179 174 169 165 164 164 160 157 155 153 151 151 150 149 149 148 146 145 144 144 144 144 145 146
310 307 303 300 302 305 307 309 309 309 308 307 307 312 319 319 315 315 318 321 323 325 324 324 327 330 331 331 331 332 333 332 328 324 321 315 304 287 269 262 264 254 242 236 225 206 191 183 184 185 182 178 173 170 170 174 179 183 186 186 185 182 179 176 172 170 169 165 161 158 156 153 152 152 151 150 150 148 146 145 145 145 145 146 146
308 307 305 303 302 304 307 310 310 308 305 306 308 314 318 316 312 313 317 321 325 328 326 325 328 331 332 333 333 334 335 335 332 328 321 314 307 294 271 252 247 244 232 221 215 204 192 185 184 184 182 177 173 171 169 167 165 170 178 183 185 184 183 182 177 174 173 170 165 161 157 154 152 152 151 151 152 151 148 147 148 148 147 147 147
306 306 305 303 302 303 307 311 311 307 303 307 311 313 313 312 311 312 315 320 325 326 324 325 329 332 334 335 335 334 335 335 336 334 327 315 307 296 270 244 234 229 217 207 202 194 187 185 186 186 185 183 181 179 175 168 163 162 161 163 171 177 178 179 177 174 173 173 169 164 159 155 154 155 154 153 154 153 150 151 152 151 150 150 149
307 307 305 302 300 302 306 310 310 306 304 308 311 310 310 312 312 310 313 318 321 321 323 329 334 336 339 341 340 339 337 336 337 340 338 326 312 296 268 237 223 217 207 198 193 189 186 189 189 187 187 187 183 179 175 170 166 163 158 155 159 163 166 171 173 171 169 172 172 169 165 159 157 158 159 157 157 156 153 152 154 153 153 152 150
309 309 306 302 300 300 304 308 308 305 306 309 310 308 308 311 311 310 312 316 317 319 325 333 336 336 340 343 344 345 345 340 337 343 347 342 327 305 269 228 211 209 203 196 194 192 189 187 185 183 182 181 177 174 173 170 166 163 159 155 155 157 159 163 165 164 163 166 169 171 170 165 162 162 162 161 160 159 156 154 155 155 153 153 152
313 311 306 302 301 302 304 305 304 304 307 309 308 308 309 309 309 309 311 313 314 317 324 330 333 334 336 338 341 345 348 347 343 343 348 351 346 327 285 232 207 203 202 199 197 193 186 183 179 175 173 172 169 167 167 166 163 160 156 154 152 152 154 158 160 161 161 164 167 171 171 167 164 163 163 162 162 161 158 156 155 154 154 154 153
313 310 306 303 303 305 305 303 301 302 304 304 305 306 309 308 308 309 310 309 310 315 320 323 325 327 329 332 335 338 342 346 347 345 346 351 353 345 318 251 212 203 201 200 198 192 182 176 173 168 166 165 163 160 161 161 160 158 156 154 152 152 153 155 157 157 158 160 163 166 168 165 163 162 162 162 162 160 158 156 156 155 155 154 152
312 308 304 303 305 305 304 302 300 300 301 300 301 303 305 306 307 307 306 305 308 312 315 316 317 318 320 325 331 332 334 339 343 344 345 349 352 352 348 308 222 204 198 196 195 188 179 173 169 166 165 162 159 156 157 158 159 158 157 155 152 151 151 152 152 153 154 157 159 162 165 165 162 160 160 160 160 159 157 156 156 156 154 152 150